Hourly Data Report for May 23, 2012

All times are specified in Local Standard Time (LST). Add 1 hour to adjust for Daylight Saving Time where and when it is observed.

DEER LAKE A
NEWFOUNDLAND

49°12'33.000" N
57°23'40.000" W
21.90 m
8401502
71809
YDF

Download Data

Hourly Data (May 2012)
Hourly Data Report for May 23, 2012
Temp Definition
°C
Dew Point Temp Definition
°C
Rel Hum Definition
%
Wind Dir Definition
10's deg

Wind Spd Definition
km/h
Visibility Definition
km
Stn Press Definition
kPa
Hmdx Definition


Wind Chill Definition


Weather Definition


TIME
00:30 Legend Double Dagger 15.2 11.4 78 30 5 10.0 101.10     LegendNANA
01:30 Legend Double Dagger 14.8 11.0 78 20 10 10.0 101.07     LegendNANA
02:30 Legend Double Dagger 15.3 11.9 80 20 5 10.0 101.03     Mostly Cloudy
03:30 Legend Double Dagger 14.9 13.1 89 22 7 10.0 101.01     LegendNANA
04:30 Legend Double Dagger 14.1 13.0 93 21 5 10.0 100.98     Rain Showers
05:30 Legend Double Dagger 14.7 13.6 93 24 4 10.0 100.96     Rain Showers
06:30 Legend Double Dagger 15.1 14.0 93 21 6 10.0 100.93     Rain Showers
07:30 Legend Double Dagger 15.2 14.6 96   0 10.0 100.89     Rain Showers
08:30 Legend Double Dagger 15.7 14.8 94   0 10.0 100.84     Cloudy
09:30 Legend Double Dagger 15.7 15.4 98   0 9.7 100.78     Rain Showers,Fog
10:30 Legend Double Dagger 15.8 15.5 98 7 7 9.7 100.69     Rain Showers,Fog
11:30 Legend Double Dagger 15.5 15.0 97 8 10 6.4 100.59     Rain Showers,Fog
12:30 Legend Double Dagger 16.2 15.7 97 7 9 4.8 100.52     Rain Showers,Fog
13:30 Legend Double Dagger 17.2 15.9 92 4 5 9.7 100.47     Rain Showers,Fog
14:30 Legend Double Dagger 13.2 12.1 93 2 20 4.8 100.58     Rain Showers,Fog
15:30 Legend Double Dagger 8.7 8.1 96 5 19 4.8 100.77     Rain Showers,Fog
16:30 Legend Double Dagger 7.2 6.3 94 5 22 6.4 100.92     Rain Showers,Fog
17:30 Legend Double Dagger 6.7 5.8 94 6 22 6.4 101.02     Rain Showers,Fog
18:30 Legend Double Dagger 6.7 5.8 94 2 17 10.0 101.17     Rain Showers
19:30 Legend Double Dagger 6.4 5.2 92 6 17 10.0 101.29     Rain Showers
20:30 Legend Double Dagger 6.1 4.8 91 5 24 10.0 101.38     Rain Showers
21:30 Legend Double Dagger 5.7 4.5 92 4 23 10.0 101.51     Rain Showers
22:30 Legend Double Dagger 5.1 4.4 95 3 16 10.0 101.57     Rain Showers
23:30 Legend Double Dagger 5.2 4.0 92 4 19 10.0 101.65     Rain Showers

Notes on Data Quality.

Legend

  • E = Estimated
  • M = Missing
  • NA = Not Available
  • ‡ = Partner data that is not subject to review by the National Climate Archives
Date modified: